H1 CPF  2 gal 2020 09 16 09 260 1 galileo214
H2 1606904 7214 41862 2020 09 16 00 14 42 2020 09 21 00 14 42 900 1 1 0 0 0 1
H9                                                                                
10 0 59110  38682.000000  0      26798658.590      -7174503.941     -10315131.037 
10 0 59110  39582.000000  0      27616445.766      -7227270.534      -7818533.641 
10 0 59110  40482.000000  0      28199998.026      -7313218.633      -5224659.763 
10 0 59110  41382.000000  0      28542286.148      -7400393.289      -2565779.696 
10 0 59110  42282.000000  0      28642485.314      -7456314.238        125024.997 
10 0 59110  43182.000000  0      28505980.416      -7449056.685       2814273.926 
10 0 59110  44082.000000  0      28144179.485      -7348315.617       5468505.414 
10 0 59110  44982.000000  0      27574141.100      -7126420.100       8054693.859 
10 0 59110  45882.000000  0      26818027.507      -6759265.562      10540661.615 
10 0 59110  46782.000000  0      25902400.679      -6227134.662      12895480.171 
10 0 59110  47682.000000  0      24857383.447      -5515380.859      15089855.569 
10 0 59110  48582.000000  0      23715712.102      -4614953.131      17096493.196 
10 0 59110  49482.000000  0      22511710.235      -3522745.269      18890437.400 
10 0 59110  50382.000000  0      21280216.054      -2241758.746      20449381.678 
10 0 59110  51282.000000  0      20055496.821       -781073.968      21753945.639 
10 0 59110  52182.000000  0      18870184.446        844369.238      22787915.326 
10 0 59110  53082.000000  0      17754265.543       2614175.087      23538443.993 
10 0 59110  53982.000000  0      16734157.556       4503066.681      23996210.926 
10 0 59110  54882.000000  0      15831899.781       6481614.324      24155536.409 
10 0 59110  55782.000000  0      15064484.537       8517094.602      24014451.497 
10 0 59110  56682.000000  0      14443349.316      10574453.466      23574721.795 
10 0 59110  57582.000000  0      13974045.694      12617343.314      22841824.974 
10 0 59110  58482.000000  0      13656095.267      14609201.759      21824882.359 
10 0 59110  59382.000000  0      13483037.032      16514338.502      20536545.406 
10 0 59110  60282.000000  0      13442664.626      18298996.422      18992838.481 
10 0 59110  61182.000000  0      13517445.955      19932353.846      17212959.836 
10 0 59110  62082.000000  0      13685111.975      21387436.751      15219043.220 
10 0 59110  62982.000000  0      13919396.163      22641912.457      13035883.022 
10 0 59110  63882.000000  0      14190901.430      23678740.059      10690626.307 
10 0 59110  64782.000000  0      14468067.285      24486657.308       8212435.534 
10 0 59110  65682.000000  0      14718206.854      25060488.768       5632126.124 
10 0 59110  66582.000000  0      14908581.200      25401265.633       2981783.350 
10 0 59110  67482.000000  0      15007477.164      25516153.525        294363.348 
10 0 59110  68382.000000  0      14985254.860      25418190.578      -2396716.804 
10 0 59110  69282.000000  0      14815331.872      25125844.072      -5057994.764 
10 0 59110  70182.000000  0      14475073.202      24662399.579      -7656379.195 
10 0 59110  71082.000000  0      13946558.958      24055201.841     -10159561.360 
10 0 59110  71982.000000  0      13217205.621      23334771.223     -12536416.914 
10 0 59110  72882.000000  0      12280221.319      22533823.522     -14757392.857 
10 0 59110  73782.000000  0      11134880.750      21686223.883     -16794874.819 
10 0 59110  74682.000000  0       9786611.048      20825907.678     -18623530.111 
10 0 59110  75582.000000  0       8246885.825      19985802.168     -20220622.310 
10 0 59110  76482.000000  0       6532930.598      19196782.763     -21566293.499 
10 0 59110  77382.000000  0       4667248.736      18486696.556     -22643810.695 
10 0 59110  78282.000000  0       2676982.645      17879483.719     -23439773.485 
10 0 59110  79182.000000  0        593130.058      17394424.232     -23944280.331 
10 0 59110  80082.000000  0      -1550360.197      17045533.513     -24151051.542 
10 0 59110  80982.000000  0      -3717584.824      16841125.851     -24057507.414 
10 0 59110  81882.000000  0      -5871744.059      16783559.287     -23664800.608 
10 0 59110  82782.000000  0      -7976228.138      16869169.931     -22977802.341 
10 0 59110  83682.000000  0      -9995698.403      17088397.782     -22005042.556 
10 0 59110  84582.000000  0     -11897129.387      17426100.129     -20758604.755 
10 0 59110  85482.000000  0     -13650779.421      17862042.764     -19253976.726 
10 0 59110  86382.000000  0     -15231059.503      18371553.641     -17509858.968 
10 0 59111    882.000000  0     -16617273.323      18926318.541     -15547933.066 
10 0 59111   1782.000000  0     -17794205.366      19495293.842     -13392592.842 
10 0 59111   2682.000000  0     -18752538.703      20045707.760     -11070641.534 
10 0 59111   3582.000000  0     -19489089.439      20544118.674      -8610958.716 
10 0 59111   4482.000000  0     -20006850.502      20957497.284      -6044141.071 
10 0 59111   5382.000000  0     -20314843.417      21254298.580      -3402121.472 
10 0 59111   6282.000000  0     -20427782.783      21405489.914       -717771.156 
10 0 59111   7182.000000  0     -20365564.022      21385502.767       1975510.036 
10 0 59111   8082.000000  0     -20152590.535      21173078.261       4644210.152 
10 0 59111   8982.000000  0     -19816961.505      20751979.718       7255123.099 
10 0 59111   9882.000000  0     -19389545.905      20111549.818       9775762.785 
10 0 59111  10782.000000  0     -18902971.919      19247094.752      12174768.193 
10 0 59111  11682.000000  0     -18390563.589      18160083.238      14422294.251 
10 0 59111  12582.000000  0     -17885258.183      16858154.079      16490383.585 
10 0 59111  13482.000000  0     -17418538.343      15354931.993      18353314.486 
10 0 59111  14382.000000  0     -17019412.590      13669657.428      19987920.750 
10 0 59111  15282.000000  0     -16713476.218      11826641.934      21373879.444 
10 0 59111  16182.000000  0     -16522082.052       9854566.121      22493963.047 
10 0 59111  17082.000000  0     -16461647.073       7785642.131      23334252.909 
10 0 59111  17982.000000  0     -16543116.627       5654666.789      23884311.448 
10 0 59111  18882.000000  0     -16771602.984       3497994.964      24137311.019 
10 0 59111  19782.000000  0     -17146209.547       1352465.186      24090117.956 
10 0 59111  20682.000000  0     -17660046.174       -745689.032      23743330.778 
10 0 59111  21582.000000  0     -18300435.142      -2761908.238      23101272.167 
10 0 59111  22482.000000  0     -19049301.271      -4664323.172      22171934.832 
10 0 59111  23382.000000  0     -19883734.007      -6424686.378      20966881.938 
10 0 59111  24282.000000  0     -20776703.889      -8019190.313      19501103.329 
10 0 59111  25182.000000  0     -21697910.968      -9429146.512      17792829.304 
10 0 59111  26082.000000  0     -22614738.655     -10641504.714      15863304.198 
10 0 59111  26982.000000  0     -23493283.133     -11649195.832      13736522.544 
10 0 59111  27882.000000  0     -24299426.108     -12451288.157      11438931.041 
10 0 59111  28782.000000  0     -24999917.284     -13052952.007       8999099.972 
10 0 59111  29682.000000  0     -25563432.652     -13465234.040       6447368.146 
10 0 59111  30582.000000  0     -25961575.371     -13704648.397       3815465.741 
10 0 59111  31482.000000  0     -26169787.860     -13792597.579       1136119.744 
10 0 59111  32382.000000  0     -26168146.437     -13754641.310      -1557353.081 
10 0 59111  33282.000000  0     -25942013.555     -13619636.411      -4231460.624 
10 0 59111  34182.000000  0     -25482527.116     -13418774.746      -6852952.041 
10 0 59111  35082.000000  0     -24786911.484     -13184549.512      -9389231.345 
10 0 59111  35982.000000  0     -23858600.381     -12949682.390     -11808762.771 
10 0 59111  36882.000000  0     -22707167.775     -12746045.280     -14081462.859 
10 0 59111  37782.000000  0     -21348068.880     -12603610.526     -16179074.347 
10 0 59111  38682.000000  0     -19802199.328     -12549462.611     -18075517.236 
10 0 59111  39582.000000  0     -18095286.285     -12606902.357     -19747212.674 
10 0 59111  40482.000000  0     -16257130.513     -12794671.778     -21173375.662 
10 0 59111  41382.000000  0     -14320723.028     -13126323.901     -22336273.003 
10 0 59111  42282.000000  0     -12321263.929     -13609757.368     -23221443.348 
10 0 59111  43182.000000  0     -10295113.982     -14246930.422     -23817876.646 
10 0 59111  44082.000000  0      -8278711.649     -15033763.317     -24118150.851 
10 0 59111  44982.000000  0      -6307489.304     -15960232.256     -24118524.212 
10 0 59111  45882.000000  0      -4414822.393     -17010652.026     -23818982.031 
10 0 59111  46782.000000  0      -2631044.260     -18164138.551     -23223237.316 
10 0 59111  47682.000000  0       -982557.330     -19395237.028     -22338685.301 
10 0 59111  48582.000000  0        508931.694     -20674696.061     -21176312.349 
10 0 59111  49482.000000  0       1827028.781     -21970363.697     -19750560.316 
10 0 59111  50382.000000  0       2961102.485     -23248177.399     -18079147.978 
10 0 59111  51282.000000  0       3906552.794     -24473217.038     -16182851.656 
10 0 59111  52182.000000  0       4664890.576     -25610787.991     -14085247.676 
10 0 59111  53082.000000  0       5243625.187     -26627500.440     -11812419.800 
10 0 59111  53982.000000  0       5655963.828     -27492311.053      -9392635.191 
10 0 59111  54882.000000  0       5920332.118     -28177494.377      -6855992.906 
10 0 59111  55782.000000  0       6059730.999     -28659513.425      -4234049.287 
10 0 59111  56682.000000  0       6100950.226     -28919762.112      -1559424.914 
99